Location: Auttagershofen
(48.1940°N, 10.0237°E)
Time: 21:46:13
(UTC+00:00)

Lacrosse 5 rocket - Pass Details

Date: 15 April 2026
Orbit: 390 x 471 km, 57.0° (Epoch: 19 May)

Event Time Altitude Azimuth Distance (km) Brightness Sun altitude
Rises 18:44:49 0° 238° (WSW) 2,302 5.1 -6.2°
Reaches altitude 10° 18:46:53 10° 241° (WSW) 1,438 4.0 -6.6°
Maximum altitude 18:50:04 70° 326° (NW) 423 1.0 -7.0°
Drops below altitude 10° 18:53:14 10° 50° (NE) 1,431 3.2 -7.5°
Sets 18:55:18 0° 53° (NE) 2,289 4.2 -7.8°
